Coffeyville, KS

10:13 AM CDT on March 25, 2017 (GMT -0500)
Coffeyville Municipal

Weather History for KCFV - January, 2014

Change the Weather History Date:

Wednesday, January 29, 2014

  Actual Average Record
Temperature  
Mean Temperature 29 °F -  
Max Temperature 46 °F 44 °F 73 °F (2011)
Min Temperature 12 °F 24 °F 12 °F (1997)
Degree Days  
Heating Degree Days 36    
Moisture  
Dew Point 10 °F    
Average Humidity 52    
Maximum Humidity 92    
Minimum Humidity 20    
Precipitation  
Precipitation 0.00 in - - ()
Sea Level Pressure  
Sea Level Pressure 30.23 in    
Wind  
Wind Speed 9 mph (South)    
Max Wind Speed 21 mph    
Max Gust Speed 30 mph    
Visibility 10 miles    
Events      
Averages and records for this station are not official NWS values.
T = Trace of Precipitation, MM = Missing Value Source: NWS Daily Summary

Daily Weather History Graph

Daily Weather History Graph

Search for Another Location

Airport or City:

Trip Planner

Search our weather history database for the weather conditions in past years. The results will help you decide how hot, cold, wet, or windy it might be!

Date:

Astronomy

Jan. 29, 2014 Rise Set
Actual Time 7:27 AM CST 5:44 PM CST
Civil Twilight 6:59 AM CST 6:11 PM CST
Nautical Twilight 6:28 AM CST 6:42 PM CST
Astronomical Twilight 5:57 AM CST 7:13 PM CST
Moon 6:04 AM CST (1/29) 4:44 PM CST (1/29)
Length of Visible Light 11h 11m
Length of Day
10h 16m
Waning Crescent, 2% of the Moon is Illuminated
Jan 29
Waning Crescent
Jan 30
New
Feb 6
First Quarter
Feb 14
Full
Feb 22
Last Quarter

Hourly Weather History & Observations

Time (CST) Temp. Windchill Dew Point Humidity Pressure Visibility Wind Dir Wind Speed Gust Speed Precip Events Conditions
12:52 AM 15.1 °F 9.4 °F 8.1 °F 74% 30.39 in 10.0 mi South 3.5 mph - N/A   Clear
1:52 AM 12.0 °F 2.7 °F 7.0 °F 80% 30.38 in 10.0 mi South 5.8 mph - N/A   Clear
2:52 AM 14.0 °F 8.2 °F 10.0 °F 84% 30.38 in 10.0 mi South 3.5 mph - N/A   Clear
3:52 AM 14.0 °F 6.5 °F 10.9 °F 88% 30.36 in 10.0 mi South 4.6 mph - N/A   Clear
4:52 AM 12.9 °F 5.2 °F 10.9 °F 92% 30.35 in 10.0 mi SSE 4.6 mph - N/A   Clear
5:52 AM 12.0 °F 1.5 °F 9.0 °F 88% 30.35 in 10.0 mi South 6.9 mph - N/A   Clear
6:52 AM 12.0 °F 5.9 °F 7.0 °F 80% 30.34 in 10.0 mi SSE 3.5 mph - N/A   Clear
7:52 AM 12.9 °F 2.6 °F 8.1 °F 81% 30.34 in 10.0 mi South 6.9 mph - N/A   Clear
8:52 AM 19.9 °F 7.9 °F 12.9 °F 74% 30.33 in 10.0 mi South 11.5 mph - N/A   Clear
9:52 AM 26.1 °F 16.2 °F 12.0 °F 55% 30.33 in 10.0 mi SSW 10.4 mph - N/A   Clear
10:52 AM 33.1 °F 24.9 °F 14.0 °F 46% 30.33 in 10.0 mi South 10.4 mph - N/A   Clear
11:52 AM 37.9 °F 29.6 °F 12.9 °F 36% 30.30 in 10.0 mi South 13.8 mph - N/A   Clear
12:52 PM 42.1 °F 33.1 °F 10.0 °F 27% 30.25 in 10.0 mi South 20.7 mph 27.6 mph N/A   Clear
1:52 PM 44.1 °F 36.8 °F 8.1 °F 23% 30.21 in 10.0 mi South 16.1 mph 28.8 mph N/A   Clear
2:52 PM 46.9 °F - 7.0 °F 20% 30.17 in 10.0 mi SSW 20.7 mph 29.9 mph N/A   Clear
3:52 PM 46.0 °F 39.0 °F 8.1 °F 21% 30.14 in 10.0 mi South 17.3 mph 25.3 mph N/A   Clear
4:52 PM 43.0 °F 34.8 °F 10.0 °F 26% 30.13 in 10.0 mi South 18.4 mph - N/A   Clear
5:52 PM 39.0 °F 30.6 °F 10.0 °F 30% 30.11 in 10.0 mi South 15.0 mph - N/A   Clear
6:52 PM 35.1 °F 26.9 °F 10.9 °F 37% 30.10 in 10.0 mi SSE 11.5 mph - N/A   Clear
7:52 PM 32.0 °F 24.2 °F 12.0 °F 44% 30.10 in 10.0 mi South 9.2 mph - N/A   Clear
8:52 PM 36.0 °F 26.0 °F 12.0 °F 37% 30.06 in 10.0 mi South 17.3 mph 26.5 mph N/A   Clear
9:52 PM 35.1 °F 24.1 °F 10.9 °F 37% 30.06 in 10.0 mi South 19.6 mph 25.3 mph N/A   Clear
10:52 PM 34.0 °F 23.0 °F 10.9 °F 38% 30.04 in 10.0 mi South 18.4 mph 26.5 mph N/A   Clear
11:52 PM 33.1 °F 21.9 °F 10.9 °F 40% 30.01 in 10.0 mi South 18.4 mph - N/A   Clear